Location: Nandig?ma
(16.7717°N, 80.2860°E)
Time: 20:41:08
(UTC+00:00)

Cosmos 1269 Rocket - Pass Details

Date: 03 August 2024
Orbit: 770 x 776 km, 74.1° (Epoch: 17 September)

Event Time Altitude Azimuth Distance (km) Brightness Sun altitude
Rises 14:22:30 0° 354° (N) 3,247 7.7 -17.0°
Reaches altitude 10° 14:24:56 10° 359° (N) 2,318 6.8 -17.5°
Maximum altitude 14:30:05 54° 76° (ENE) 939 4.1 -18.6°
Enters shadow 14:32:03 34° 133° (SE) 1,246 4.6 -19.0°
